Other Surface Observations
Issued by NWS Missoula, MT

Home | Current Version | Previous Version | Text Only | Print | Product List | Glossary On
Versions: 1 2 3 4 5 6 7 8 9 10 11 12 13 14 15 16 17 18 19 20 21 22 23 24 25 26 27 28 29 30 31 32 33 34 35 36 37 38 39 40 41 42 43 44 45 46 47 48 49 50
000
SXUS55 KMSO 170223
OSOMSO
MONTANA AWOS SUMMARY
NATIONAL WEATHER SERVICE MISSOULA MT
823 PM MDT TUE SEP 16 2014

Montana AWOS Reports

LAUREL      |K6S8 170215Z AUTO 00000KT 1SM 21/03 A2994 RMK AO1 T02060033
ROUNDUP     |KRPX 170215Z AUTO 00000KT 40SM 20/08 A2986 RMK AO1 T02000078
MALTA       |KM75 170215Z AUTO 00000KT 40SM 17/12 A2986 RMK AO1 T01720117




USA.gov is the U.S. government's official web portal to all federal, state and local government web resources and services.